Вернуться в каталог

STARLINK-36424

АктивенСвязьVLEO
NORAD 67419·PAYLOAD·🇺🇸 United States

Запущен Jan 12, 2026 с Cape Canaveral Space Force Station

Loading…

Ближайшие Пролёты (ближайшие 24 часа)

TLE

СвежийSource: CelesTrak SupGP

Эпоха: Sep 14, 2026, 23:30 UTC

1 67419C 26005R   26257.97965278  .00016785  00000+0  60797-3 0  2570
2 67419  43.0002 248.7676 0001008 260.3672 266.9166 15.27570420    13

Отслеживайте STARLINK-36424 в реальном времени с AllMySat

Download on the App Store